Regional Weather Roundup
Issued by NWS

Home | Current Version | Previous Version | Text Only | Print | Product List | Glossary Off
Versions: 1 2 3 4 5 6 7 8 9 10 11 12 13 14 15 16 17 18 19 20 21 22 23 24 25 26 27 28 29 30 31 32 33 34 35 36 37 38 39 40 41 42 43 44 45 46 47 48 49 50

000
ASUS43 KMKX 262110
RWRWI

WISCONSIN REGIONAL WEATHER ROUNDUP
NATIONAL WEATHER SERVICE MILWAUKEE/SULLIVAN WI
400 PM CDT THU APR 26 2018

NOTE: "FAIR" INDICATES FEW OR NO CLOUDS BELOW 12,000 FEET WITH NO
SIGNIFICANT WEATHER AND/OR OBSTRUCTIONS TO VISIBILITY.

WIZ001-002-006>008-014>016-023>028-262200-
NORTHWEST WISCONSIN

CITY           SKY/WX    TMP DP  RH WIND       PRES   REMARKS
SUPERIOR ARPT  FAIR      58  31  35 N14       29.87S
ASHLAND        CLOUDY    49  36  61 NE13      29.89R
HAYWARD        PTSUNNY   58  35  42 N10G22    29.85R
SIREN          FAIR      60  30  32 N7        29.85S
CUMBERLAND     PTSUNNY   59  32  36 N13G24    29.83S
RICE LAKE      FAIR      62  34  35 NW9G16    29.84S
CHETEK         FAIR      61  37  40 NW6       29.82S
LADYSMITH      FAIR      63  34  34 W13       29.81S
EAU CLAIRE     FAIR      67  35  30 W20G25    29.79S
MENOMONIE      FAIR      66  33  29 W9G22     29.81S
NEW RICHMOND   FAIR      64  32  30 NW15G21   29.84S
OSCEOLA        FAIR      64  32  29 NW17G29   29.87F
$$

WIZ003>005-009-010-017-018-262200-
NORTH CENTRAL WISCONSIN

CITY           SKY/WX    TMP DP  RH WIND       PRES   REMARKS
MANITOWISH WTR FAIR      52  32  46 N13G24    29.82R
ARBOR VITAE    FAIR      58  33  39 N14G23    29.78S
WOODRUFF       FAIR      58  33  39 N14G23    29.78S
RHINELANDER    FAIR      62  30  29 W13G21    29.78F
EAGLE RIVER    FAIR      60  26  27 W16G23    29.77F
LAND O LAKES   PTSUNNY   55  31  40 N12G21    29.80R
PHILLIPS       CLOUDY    61  32  33 NW9       29.78S
TOMAHAWK       CLOUDY    63  29  27 W12G18    29.78F
MEDFORD        FAIR      62  33  33 SW14G22   29.77F
MERRILL        CLOUDY    62  32  32 W13G20    29.79S
$$

WIZ029-030-035-036-043>047-262200-
CENTRAL WISCONSIN

CITY           SKY/WX    TMP DP  RH WIND       PRES   REMARKS
WAUSAU         CLOUDY    62  30  29 W14G21    29.77F
MOSINEE        PTSUNNY   63  28  27 W10       29.80F
MARSHFIELD     PTSUNNY   64  30  27 W13       29.78F
STEVENS POINT  FAIR      64  26  23 W8G17     29.79F
WAUPACA        FAIR      69  23  17 SW17      29.78F
WAUTOMA        FAIR      68  27  21 SW14      29.79F
WISC RAPIDS    FAIR      69  24  18 W18       29.79F
CAMP DOUGLAS   PTSUNNY   68  28  22 W16       29.79F
$$

WIZ011>013-019>022-031-037>040-048>050-262200-
NORTHEAST WISCONSIN

CITY           SKY/WX    TMP DP  RH WIND       PRES   REMARKS
ANTIGO         FAIR      59  35  40 W14       29.80S
SHAWANO        FAIR      65  30  27 SW9       29.77F
OCONTO         FAIR      65  31  27 W12G18    29.78F
STURGEON BAY   FAIR      61  39  44 VRB6      29.80F
GREEN BAY      FAIR      64  35  34 SW10G22   29.79F
MANITOWOC      FAIR      55  36  48 S12       29.82F HAZE
APPLETON       PTSUNNY   64  19  17 SW12G18   29.79F
CLINTONVILLE   FAIR      66  25  21 W12       29.78F
OSHKOSH        FAIR      65  28  24 W10       29.80F
$$

WIZ032>034-041-042-053>061-262200-
SOUTHWEST WISCONSIN

CITY           SKY/WX    TMP DP  RH WIND       PRES   REMARKS
LA CROSSE      FAIR      71  33  24 W14       29.80F
SPARTA         FAIR      67  30  24 W12G21    29.81F
VIROQUA        FAIR      66  35  31 W17G23    29.82F
BOSCOBEL       FAIR      72  30  21 SW9G22    29.82F
PRAIRIE DU CHI FAIR      71  22  16 SW10      29.81F
PLATTEVILLE    FAIR      69  32  25 W14G21    29.85S
$$

WIZ056-057-062-063-064-067-068-262200-
SOUTH CENTRAL WISCONSIN

CITY           SKY/WX    TMP DP  RH WIND       PRES   REMARKS
REEDSBURG      FAIR      68  30  23 SW15G21   29.80F
BARABOO/DELLS  FAIR      67  28  23 W9G16     29.81F
LONE ROCK      FAIR      69  29  22 W14G25    29.81F
MINERAL POINT  FAIR      70  28  21 SW15G22   29.83F
MADISON        PTSUNNY   67  27  22 SW8       29.82F
MIDDLETON      FAIR      70  23  17 W7G18     29.83F
WATERTOWN      FAIR      65  32  29 SW9       29.82F
MONROE         FAIR      64  28  25 SW10G16   29.84F
JANESVILLE     PTSUNNY   70  23  17 W14       29.84F
$$

WIZ051-052-058>065-066-070>072-262200-
SOUTHEAST WISCONSIN

CITY           SKY/WX    TMP DP  RH WIND       PRES   REMARKS
MILWAUKEE      PTSUNNY   62  36  37 S8        29.84F
WAUKESHA       SUNNY     63  30  29 SW6G18    29.85F
MILWAUKEE/TIMM SUNNY     64  25  22 W8G18     29.84F
RACINE         FAIR      53  29  39 S15       29.88F
BURLINGTON     FAIR      66  29  25 SW8       29.85F
KENOSHA        FAIR      62  32  32 S12       29.86F
FOND DU LAC    FAIR      65  26  23 SW14      29.81F
SHEBOYGAN      FAIR      62  38  40 S9        29.81F
WEST BEND      FAIR      64  27  24 SW13      29.82F
JUNEAU         FAIR      64  26  23 SW13      29.84F
$$

LSZ147-162-262200-
LAKE SUPERIOR

STATION/POSITION TIME  TEMP    WIND        PRES    WAVE
                       AIR SEA DIR/SP/G            HT/PER
                 (UTC) (F)     (DEG/KT/KT) (MB)    (FT/S)
DEVILS ISLAND    2100   45      40/  6/  7 1012.5R
SAXON HARBOR     2040   41      60/  3/  7 1012.2R
$$

LMZ867-665-643>646-262200-
LAKE MICHIGAN

STATION/POSITION TIME  TEMP    WIND        PRES    WAVE
                       AIR SEA DIR/SP/G            HT/PER
                 (UTC) (F)     (DEG/KT/KT) (MB)    (FT/S)
NORTHPORT PIER   2040   51                 1009.1F
KEWAUNEE LAKESHO 2042   43     170/ 16/ 19 1009.1F
SHEBOYGAN LAKESH 2100   42     170/ 24/ 26 1009.9F
PORT WASHINGTON  2030   47     180/  7/ 12 1011.9F
MILWAUKEE LAKESH 2050   44     150/ 20/ 22   N/A
KENOSHA   LAKESH 2100   45                 1011.5
$$

TC  - TEMPERATURE IN CELSIUS
VSB - VISIBILITY IN STATUTE MILES
WCI - WIND CHILL INDEX
HX  - HEAT INDEX





USA.gov is the U.S. government's official web portal to all federal, state and local government web resources and services.